Regional Weather Roundup
Issued by NWS

Home | Current Version | Previous Version | Text Only | Print | Product List | Glossary Off
Versions: 1 2 3 4 5 6 7 8 9 10 11 12 13 14 15 16 17 18 19 20 21 22 23 24 25 26 27 28 29 30 31 32 33 34 35 36 37 38 39 40 41 42 43 44 45 46 47 48 49 50

000
ASUS43 KMPX 280201
RWRMN
WEATHER ROUNDUP FOR MINNESOTA
NATIONAL WEATHER SERVICE TWIN CITIES/CHANHASSEN MN
900 PM CDT MON APR 27 2015


NOTE: "FAIR" INDICATES FEW OR NO CLOUDS BELOW 12,000 FEET WITH NO
SIGNIFICANT WEATHER AND/OR OBSTRUCTIONS TO VISIBILITY. N/A MEANS
CURRENT SKY AND/OR WEATHER CONDITIONS ARE NOT AVAILABLE.

MNZ060>063-068>070-280300-
   Twin Cities Metro

CITY           SKY/WX    TMP DP  RH WIND       PRES   REMARKS
TWIN CITIES    MOCLDY    64  24  21 N3        30.14R
ST PAUL        CLEAR     58  31  35 CALM      30.14R
CRYSTAL        CLEAR     58  22  24 CALM      30.13R
BLAINE         CLEAR    N/A N/A N/A CALM      30.13S
LAKEVILLE      CLEAR     54  30  40 CALM      30.14R
EDEN PRAIRIE   CLEAR     62  25  24 NW3       30.13S
SOUTH ST PAUL  CLEAR     58  30  34 CALM      30.13R
LAKE ELMO      FAIR      54  32  43 CALM      30.14R
$$
MNZ001>005-007-008-013>017-022>024-027-028-280300-
   Northwest Minnesota

CITY           SKY/WX    TMP DP  RH WIND       PRES   REMARKS
BEMIDJI        MOCLDY    56  31  38 NW9       30.14R
HALLOCK        DRIZZLE   46  43  87 N12       30.24S
ROSEAU         CLOUDY    54  45  71 N8        30.20R
WARROAD        MOCLDY    54  45  71 NW12      30.20R
THIEF RVR FALL CLOUDY    54  39  58 NW15      30.20R
CROOKSTON      CLOUDY    52  39  62 N20       30.21S
FOSSTON        MOCLDY    57  39  51 N15G21    30.17R
DETROIT LAKES  MOCLDY    61  27  27 SW3       30.16S
MOORHEAD       MOCLDY    61  39  44 N26       30.18R
PARK RAPIDS    PTCLDY    60  27  28 NW6       30.13R
MAHNOMEN       FAIR      61  38  41 N18       30.14R
$$
MNZ006-009>011-018-025>026-280300-
   North Central Minnesota

CITY           SKY/WX    TMP DP  RH WIND       PRES   REMARKS
BAUDETTE       PTCLDY    52  41  66 NW12      30.17R
FLAG ISLAND    MOCLDY    50  41  71 NW17      30.19R
INTL FALLS     MOCLDY    50  34  54 CALM      30.13S
WASKISH        PTCLDY    59  37  44 NW5       30.15R
BIG FORK       PTCLDY    57  28  33 CALM      30.13R
LONGVILLE      MOCLDY    54  39  58 CALM      30.14R
GRAND RAPIDS   PTCLDY    54  27  35 CALM      30.14R
CRANE LAKE     MOCLDY    45  36  70 CALM      30.15F
ORR            MOCLDY    52  23  32 CALM      30.12S
COOK           MOCLDY    52  28  40 CALM      30.15R
WALKER         FAIR      60  29  30 CALM      30.13S
$$
MNZ012-019>021-037-280300-
   Northeast Minnesota

CITY           SKY/WX    TMP DP  RH WIND       PRES   REMARKS
DULUTH         PTCLDY    52  27  38 E6        30.14R
ELY            PTCLDY    48  27  43 CALM      30.14S
HIBBING        PTCLDY    52  25  35 E3        30.13R
EVELETH        PTCLDY    52  28  40 CALM      30.15S
DULUTH HARBOR  PTCLDY    41  36  81 E7        30.16S
TWO HARBORS    PTCLDY    48  34  57 NE3       30.14R
SILVER BAY     PTCLDY    43  30  61 CALM      30.15R
GRAND MARAIS     N/A     39  30  70 CALM      30.17S
G MARAIS ARPRT PTCLDY    39  25  56 SW3       30.17R
$$
MNZ029>031-032-039>041-046>048-054>057-064-280300-
   West Central Minnesota

CITY           SKY/WX    TMP DP  RH WIND       PRES   REMARKS
FERGUS FALLS   PTCLDY    64  18  16 CALM      30.15S
WHEATON        PTCLDY    59  25  27 S3        30.17R
MORRIS         PTCLDY    61  27  27 CALM      30.15S
ALEXANDRIA     PTCLDY    59  25  27 W5        30.16S
ELBOW LAKE     FAIR      60  30  32 CALM      30.15S
WADENA         PTCLDY    57  28  33 W5        30.14S
GLENWOOD       MOCLDY    59  27  29 W5        30.16S
APPLETON       PTCLDY    57  27  30 CALM      30.16R
BENSON         MOCLDY    57  21  24 CALM      30.16S
ORTONVILLE     PTCLDY    61  19  20 CALM      30.16R
MADISON        PTCLDY    61  16  17 CALM      30.16S
WILLMAR        FAIR      57  27  30 NW3       30.17S
$$
MNZ033>034-036-042>043-049>051-058-059-280300-
   Central Minnesota

CITY           SKY/WX    TMP DP  RH WIND       PRES   REMARKS
ST CLOUD       PTCLDY    58  26  29 CALM      30.14R
SAUK CENTRE    FAIR      58  29  33 W5        30.15R
PAYNESVILLE    MOCLDY    51  31  46 SW5       30.16R
AITKIN         PTCLDY    52  21  30 CALM      30.12R
PINE RIVER     MOCLDY    55  34  44 CALM      30.17R
BRAINERD       PTCLDY    57  27  31 CALM      30.14R
STAPLES        PTCLDY    61  27  27 N3        30.15R
LONG PRAIRIE   FAIR      61  28  29 W6        30.15S
LITTLE FALLS   PTCLDY    54  27  35 CALM      30.14S
LITCHFIELD     PTCLDY    57  30  35 CALM      30.16R
BUFFALO        PTCLDY    56  32  39 CALM      30.15R HAZE
MAPLE LAKE     PTCLDY    56  31  39 CALM      30.15R
$$
MNZ037-044-045-052-053-280300-
   East Central Minnesota

CITY           SKY/WX    TMP DP  RH WIND       PRES   REMARKS
PRINCETON      PTCLDY    55  30  38 CALM      30.14R
MORA           CLEAR     52  28  40 CALM      30.15R
CAMBRIDGE      PTCLDY    57  36  44 CALM      30.12R
RUSH CITY      CLEAR     54  27  34 CALM      30.13R
MOOSE LAKE     PTCLDY    55  27  33 CALM      30.11S
HINCKLEY       FAIR      54  30  40 CALM      30.13R
CLOQUET        PTCLDY    54  27  35 E5        30.14R
MCGREGOR       CLEAR     55  28  35 CALM      30.14R
$$
MNZ071>073-080-081-089-090-097-098-280300-
   Southwest Minnesota

CITY           SKY/WX    TMP DP  RH WIND       PRES   REMARKS
MONTEVIDEO     MOCLDY    59  19  21 CALM      30.17R
GRANITE FALLS  MOCLDY    61  22  22 NW5       30.18R
CANBY          PTCLDY    61  21  21 CALM      30.18R
MARSHALL       PTCLDY    63  19  19 N7        30.16R
REDWOOD FALLS  PTCLDY    63  20  19 N3        30.15S
OLIVIA         PTCLDY    55  23  28 CALM      30.16R
PIPESTONE      PTCLDY    61  27  27 N2        30.17R
WORTHINGTON    PTCLDY    61  21  21 N5        30.17R
JACKSON        CLEAR     55  16  21 N3        30.16R
TRACY          MOCLDY    59  24  26 CALM      30.16S
SLAYTON        PTCLDY    58  19  22 CALM      30.18R
$$
MNZ065>067-074>077-082>085-091>093-280300-
   South Central Minnesota

CITY           SKY/WX    TMP DP  RH WIND       PRES   REMARKS
MANKATO        PTCLDY    61  30  31 NE3       30.15R
NEW ULM        PTCLDY    63  19  19 CALM      30.15R
ST JAMES       PTCLDY    57  19  23 CALM      30.16R
FAIRMONT       PTCLDY    61  21  21 NE3       30.15R
GLENCOE        PTCLDY    59  28  30 CALM      30.14S
FARIBAULT      CLEAR     54  28  37 CALM      30.15R
OWATONNA       CLEAR     55  23  28 CALM      30.15R
WASECA         CLEAR     57  28  33 N5        30.16S
ALBERT LEA     CLEAR     57  28  33 NW3       30.15R
$$
MNZ078>079-086>088-094>096-280300-
   Southeast Minnesota

CITY           SKY/WX    TMP DP  RH WIND       PRES   REMARKS
ROCHESTER      CLEAR     56  29  35 N7        30.14R
RED WING       CLEAR     55  28  35 N3        30.12R
STANTON        CLEAR     55  29  36 CALM      30.13S
DODGE CENTER   CLEAR     57  27  30 N5        30.14S
WINONA         CLEAR     55  34  44 CALM      30.12R
AUSTIN         CLEAR     55  30  38 CALM      30.14R
PRESTON        CLEAR     56  30  37 N3        30.13S
$$
ABBREVIATIONS USED IN REMARKS
   TC - TEMPERATURES IN CELSIUS
  WCI - WIND CHILL INDEX
   HX - HEAT INDEX
  VSB - VISIBILITY
$$


USA.gov is the U.S. government's official web portal to all federal, state and local government web resources and services.